TimePST,TemperatureF,Dew PointF,Humidity,Sea Level PressureIn,VisibilityMPH,Wind Direction,Wind SpeedMPH,Gust SpeedMPH,PrecipitationIn,Events,Conditions,WindDirDegrees,DateUTC
12:53 AM,64.0,42.1,45,30.25,10.0,NNW,10.4,-,N/A,,Clear,330,2012-11-12 08:53:00
1:53 AM,62.1,41.0,46,30.25,10.0,WNW,9.2,-,N/A,,Clear,300,2012-11-12 09:53:00
2:53 AM,60.1,39.9,47,30.24,10.0,NNW,8.1,-,N/A,,Clear,340,2012-11-12 10:53:00
3:53 AM,66.0,41.0,40,30.22,10.0,NNW,10.4,-,N/A,,Clear,340,2012-11-12 11:53:00
4:53 AM,63.0,41.0,45,30.23,10.0,NNW,5.8,-,N/A,,Clear,340,2012-11-12 12:53:00
5:53 AM,64.0,43.0,46,30.22,10.0,NNW,9.2,-,N/A,,Clear,340,2012-11-12 13:53:00
6:53 AM,57.9,35.1,42,30.23,10.0,North,18.4,-,N/A,,Clear,10,2012-11-12 14:53:00
7:53 AM,60.1,36.0,41,30.23,10.0,North,21.9,-,N/A,,Clear,360,2012-11-12 15:53:00
8:53 AM,63.0,37.0,38,30.23,10.0,North,18.4,-,N/A,,Clear,360,2012-11-12 16:53:00
9:53 AM,64.9,36.0,34,30.22,10.0,North,17.3,-,N/A,,Clear,10,2012-11-12 17:53:00
10:53 AM,66.0,30.9,27,30.21,10.0,North,12.7,-,N/A,,Clear,10,2012-11-12 18:53:00
11:53 AM,66.0,35.1,32,30.19,10.0,North,9.2,-,N/A,,Clear,360,2012-11-12 19:53:00
12:53 PM,70.0,18.0,14,30.16,10.0,NNW,8.1,-,N/A,,Clear,340,2012-11-12 20:53:00
1:53 PM,79.0,19.9,11,30.14,10.0,NW,17.3,-,N/A,,Clear,320,2012-11-12 21:53:00
2:53 PM,77.0,33.1,20,30.13,10.0,NW,15.0,-,N/A,,Clear,310,2012-11-12 22:53:00
3:53 PM,73.0,46.0,38,30.12,10.0,WNW,15.0,-,N/A,,Clear,300,2012-11-12 23:53:00
4:53 PM,69.1,46.0,44,30.12,10.0,West,12.7,-,N/A,,Clear,270,2012-11-13 00:53:00
5:53 PM,66.9,46.0,47,30.13,10.0,West,12.7,-,N/A,,Clear,280,2012-11-13 01:53:00
6:53 PM,66.0,46.0,48,30.14,10.0,West,12.7,-,N/A,,Clear,270,2012-11-13 02:53:00
7:53 PM,66.9,48.0,51,30.14,10.0,WNW,15.0,-,N/A,,Clear,290,2012-11-13 03:53:00
8:53 PM,66.9,48.9,52,30.15,10.0,WNW,15.0,-,N/A,,Clear,290,2012-11-13 04:53:00
9:53 PM,66.9,51.1,57,30.14,10.0,WNW,16.1,-,N/A,,Clear,300,2012-11-13 05:53:00
10:53 PM,68.0,50.0,52,30.13,10.0,WNW,12.7,-,N/A,,Clear,290,2012-11-13 06:53:00
11:53 PM,69.1,44.1,40,30.13,10.0,NW,10.4,-,N/A,,Clear,310,2012-11-13 07:53:00